Temperature
-1 -1 -2 -3 -3 -3 -4 -5 -7 -7 -6 -5 -6 -6 -6 -6 -7 -7 -7 -7 -7 -6 -6 -6 -6 -5 -5 -5 -4 -4 -4 -3 -3 -3 -2 -2 -1 -1
-2 -3 -3 -4 -4 -4 -4 -5 -6 -7 -7 -6 -6 -7 -7 -7 -7 -7 -7 -7 -7 -7 -7 -6 -6 -6 -6 -5 -5 -5 -4 -4 -4 -3 -3 -2 -2 -1
-3 -4 -4 -5 -5 -5 -5 -6 -7 -7 -8 -7 -7 -7 -7 -7 -7 -7 -8 -8 -8 -8 -7 -7 -7 -7 -6 -6 -6 -5 -5 -5 -4 -4 -3 -3 -2 -2
-4 -5 -5 -5 -6 -6 -6 -7 -8 -8 -8 -8 -8 -8 -8 -8 -8 -8 -8 -8 -8 -8 -8 -8 -7 -7 -7 -7 -6 -6 -6 -5 -5 -5 -4 -4 -3 -3
-5 -5 -6 -6 -6 -7 -8 -8 -8 -8 -8 -8 -8 -8 -8 -8 -8 -8 -8 -9 -9 -9 -9 -8 -8 -8 -8 -7 -7 -7 -6 -6 -6 -5 -5 -5 -4 -4
-6 -6 -6 -7 -7 -8 -8 -8 -8 -8 -8 -8 -8 -8 -8 -8 -8 -9 -9 -9 -9 -9 -9 -9 -9 -8 -8 -8 -8 -8 -7 -7 -7 -6 -6 -5 -5 -4
-6 -7 -7 -8 -8 -8 -8 -8 -9 -8 -8 -8 -8 -8 -8 -9 -9 -9 -9 -9 -9 -9 -9 -9 -9 -9 -9 -9 -9 -9 -8 -8 -7 -7 -6 -6 -5 -5
-7 -7 -8 -8 -9 -9 -9 -9 -8 -8 -8 -8 -8 -9 -9 -9 -9 -10 -10 -10 -9 -9 -10 -10 -10 -10 -10 -9 -9 -9 -8 -8 -7 -7 -6 -6 -6 -5
-7 -8 -8 -9 -9 -9 -9 -9 -9 -9 -9 -9 -9 -9 -10 -10 -10 -10 -10 -10 -10 -10 -10 -10 -10 -10 -10 -10 -9 -9 -8 -8 -7 -7 -7 -6 -6 -5
-8 -9 -9 -9 -9 -9 -9 -9 -9 -9 -9 -10 -10 -10 -10 -10 -10 -10 -10 -11 -11 -10 -10 -11 -10 -10 -10 -9 -9 -9 -8 -8 -7 -7 -7 -6 -6 -6
-9 -9 -9 -10 -10 -9 -9 -9 -9 -10 -10 -10 -10 -10 -10 -10 -10 -10 -11 -11 -11 -11 -10 -11 -10 -10 -10 -9 -8 -8 -8 -8 -7 -7 -7 -6 -6 -6
-9 -9 -10 -10 -9 -9 -9 -10 -10 -10 -10 -10 -10 -9 -9 -9 -10 -11 -11 -11 -11 -11 -10 -10 -10 -10 -10 -9 -8 -8 -8 -7 -7 -7 -6 -6 -6 -6
-9 -10 -10 -10 -9 -9 -10 -10 -11 -10 -10 -11 -10 -10 -10 -10 -10 -10 -10 -11 -11 -11 -10 -10 -10 -10 -10 -9 -8 -7 -7 -6 -6 -6 -5 -5 -5 -5
-10 -10 -10 -10 -10 -10 -11 -11 -11 -11 -11 -11 -12 -11 -11 -10 -10 -9 -9 -10 -10 -10 -9 -9 -10 -10 -10 -10 -9 -6 -5 -5 -5 -5 -4 -4 -4 -4
-10 -10 -10 -11 -11 -10 -11 -11 -11 -11 -12 -12 -12 -12 -11 -10 -10 -9 -9 -9 -8 -8 -8 -9 -9 -9 -9 -9 -9 -7 -6 -4 -3 -3 -3 -3 -3 -3
-10 -10 -10 -10 -10 -11 -11 -11 -11 -12 -12 -12 -12 -11 -10 -10 -9 -10 -10 -9 -9 -7 -7 -8 -8 -8 -8 -7 -7 -6 -6 -5 -3 -2 -2 -2 -2 -2
-11 -11 -10 -11 -11 -11 -11 -11 -11 -11 -12 -11 -11 -11 -10 -10 -9 -9 -10 -10 -10 -9 -8 -7 -7 -6 -6 -6 -6 -5 -4 -3 -2 -1 -1 -1 -1 -1
-11 -11 -12 -12 -12 -12 -12 -12 -11 -11 -11 -11 -11 -11 -10 -10 -9 -9 -9 -9 -9 -9 -8 -8 -7 -6 -5 -5 -5 -5 -4 -3 -2 -1 -1 -1 -0 0
-11 -12 -13 -13 -12 -12 -12 -12 -11 -11 -10 -10 -10 -10 -10 -10 -9 -9 -9 -9 -9 -8 -8 -8 -7 -7 -8 -7 -5 -4 -4 -3 -2 -2 -1 -1 -0 0
-12 -13 -13 -12 -12 -12 -12 -11 -11 -10 -10 -9 -9 -9 -9 -9 -9 -9 -9 -9 -8 -8 -7 -7 -7 -7 -7 -7 -6 -5 -4 -3 -3 -2 -2 -1 -1 0
-12 -12 -12 -12 -11 -11 -11 -10 -10 -9 -9 -9 -8 -8 -8 -8 -8 -8 -8 -8 -8 -8 -8 -7 -7 -7 -6 -5 -5 -5 -4 -4 -3 -3 -2 -2 -2 -1
-12 -12 -11 -11 -11 -11 -10 -10 -9 -8 -8 -8 -8 -8 -8 -8 -8 -8 -8 -8 -7 -7 -7 -7 -7 -6 -5 -5 -5 -5 -5 -4 -4 -3 -3 -3 -3 -3
-12 -11 -11 -10 -10 -10 -9 -9 -8 -8 -8 -8 -7 -7 -7 -7 -7 -7 -7 -7 -7 -7 -7 -7 -7 -6 -6 -6 -5 -5 -5 -5 -5 -5 -4 -4 -4 -3
Wind_Speed
5 5 5 5 6 7 7 8 11 18 19 11 7 6 6 7 17 17 15 27 34 35 36 36 36 36 36 35 35 35 35 35 35 35 35 35 36 36
4 6 6 6 7 7 7 8 9 13 18 15 12 9 9 14 21 17 16 31 33 34 35 35 35 36 37 37 37 37 36 36 36 36 36 36 36 36
6 7 8 8 7 7 8 8 9 11 17 20 15 11 11 12 13 10 14 13 16 31 34 36 37 37 37 37 37 37 36 36 36 36 36 36 36 36
8 8 8 9 9 9 9 10 11 11 15 21 20 15 14 12 13 12 15 16 13 28 34 35 36 36 37 37 37 37 37 37 36 36 36 36 36 36
8 8 9 10 11 10 11 12 11 13 12 17 20 17 14 13 14 15 15 12 17 22 29 31 33 35 36 37 37 37 37 37 36 36 36 36 36 36
8 9 9 10 12 12 13 11 12 14 14 16 17 17 16 12 12 15 17 11 14 17 22 25 29 33 35 36 36 36 36 36 36 36 36 35 35 35
8 8 10 16 21 18 17 15 16 16 16 17 18 18 17 16 16 15 19 18 15 14 14 15 16 15 18 26 31 34 36 36 36 36 35 35 35 34
9 9 11 14 19 26 29 28 25 21 19 18 18 19 20 18 17 18 20 20 19 9 12 17 15 16 16 14 27 35 36 36 36 36 36 35 34 34
10 11 14 16 20 14 22 27 24 28 27 20 19 19 21 20 21 22 20 20 21 17 16 19 15 17 16 19 32 35 36 36 36 36 36 35 35 34
10 11 12 13 16 21 19 18 16 15 19 17 15 17 18 18 18 20 20 20 19 15 13 18 17 17 18 16 29 34 35 34 34 34 34 33 33 33
10 10 14 14 25 31 22 19 17 14 21 25 27 26 30 30 24 17 16 16 19 17 12 13 17 18 18 17 20 28 30 31 32 32 32 32 31 30
9 10 18 23 29 31 20 15 17 18 18 18 19 22 19 20 25 16 15 15 17 15 9 9 16 15 12 9 9 11 16 25 30 30 30 30 29 20
13 11 12 28 30 30 25 14 21 22 15 15 16 15 15 14 14 14 15 14 16 17 15 13 15 15 13 13 13 12 12 14 15 18 22 26 27 22
13 12 16 29 29 27 21 22 27 22 13 14 14 14 14 15 15 17 18 17 16 19 20 19 15 16 16 17 14 11 12 13 13 13 11 16 19 24
13 22 26 27 24 18 22 26 21 13 13 13 14 14 13 14 15 15 16 15 16 15 15 16 15 14 13 14 12 13 14 12 12 10 8 7 8 9
13 17 22 22 19 19 19 16 13 13 14 13 14 14 13 13 14 14 15 15 14 14 11 11 13 14 12 13 13 15 15 10 10 9 5 3 4 7
16 9 10 12 13 13 13 13 13 13 14 13 14 14 15 15 15 13 13 13 13 14 15 12 11 11 11 10 10 13 13 11 10 8 4 2 1 3
17 11 12 13 14 14 15 15 14 14 14 14 14 14 14 15 15 14 13 12 13 13 13 13 13 10 6 5 7 11 11 10 10 10 7 6 5 3
12 11 12 13 13 14 14 14 15 15 14 13 14 14 14 14 14 14 13 12 12 12 12 11 10 9 9 9 10 14 12 10 12 11 11 9 8 8
10 12 13 13 13 14 14 14 14 15 14 13 14 13 13 13 13 13 13 13 12 12 11 10 9 9 7 7 7 8 18 14 11 12 12 11 11 15
12 12 13 13 13 14 14 14 14 14 15 14 14 14 13 13 13 13 12 16 13 9 10 10 10 15 8 6 5 8 11 20 21 13 10 10 12 15
13 13 13 14 14 13 14 14 14 14 15 14 13 13 13 12 13 14 12 10 9 8 8 7 9 8 6 7 8 9 12 13 19 28 30 23 12 11
13 13 14 14 13 13 13 14 16 15 14 14 13 13 13 13 12 11 10 9 8 7 6 6 7 6 6 7 7 9 12 14 13 16 19 28 32 31
Wind_Direction
309 308 307 301 299 296 296 299 304 308 307 299 293 264 265 274 289 295 287 294 297 297 297 296 294 292 290 288 287 285 284 282 279 277 275 272 270 268
304 306 305 303 302 297 294 293 288 293 298 300 301 293 286 296 298 296 289 295 296 296 294 294 293 292 290 288 286 285 283 281 279 277 275 272 270 268
299 306 298 300 302 302 297 293 290 289 295 300 300 299 289 286 290 276 281 280 286 292 294 294 293 291 290 288 287 285 283 282 279 277 275 273 271 269
290 290 293 307 304 302 299 295 293 288 291 299 303 304 297 292 291 285 296 295 289 292 294 293 293 292 291 289 287 285 283 281 279 277 275 273 271 270
282 284 291 299 304 303 300 297 296 298 295 297 300 301 299 298 298 298 293 288 291 293 294 293 291 290 289 288 286 285 283 281 279 277 275 273 270 269
279 280 286 293 298 302 304 298 303 304 300 297 298 301 302 300 300 304 304 294 293 294 291 289 289 291 289 288 287 285 283 281 278 276 273 270 267 265
291 286 290 306 312 312 310 311 308 304 304 304 303 305 306 309 308 307 304 303 293 288 289 288 289 285 284 283 283 282 280 278 276 273 271 268 265 263
308 304 303 307 309 315 313 309 308 308 307 305 306 306 306 306 307 305 305 304 302 294 291 295 290 286 283 278 279 280 279 278 275 273 270 268 266 263
309 308 313 315 316 302 302 308 307 305 306 305 304 303 304 306 306 305 304 302 299 301 301 295 292 288 285 282 284 283 282 280 277 273 269 266 263 260
300 298 299 302 307 311 309 310 305 303 301 303 298 299 302 303 303 303 301 300 296 293 291 293 296 292 290 284 285 282 281 280 277 274 269 264 260 256
296 298 308 308 309 315 318 314 313 310 311 309 309 309 308 309 309 308 306 305 303 301 295 289 295 298 293 287 281 281 282 283 281 277 271 265 259 253
305 300 313 316 316 320 322 320 318 313 315 317 314 311 307 305 309 308 303 301 300 302 297 292 299 307 302 278 270 278 283 283 281 277 271 263 255 248
319 318 314 318 321 325 327 321 313 320 323 317 312 310 310 310 309 306 301 296 296 294 297 301 299 299 294 299 299 288 282 282 281 275 269 260 250 238
319 316 316 322 327 328 326 320 323 328 320 314 313 314 315 313 311 308 302 296 288 287 291 294 294 297 300 299 301 299 297 290 283 276 264 253 244 232
316 319 324 327 329 326 321 324 328 323 317 316 315 313 310 306 307 308 306 302 295 290 288 289 293 296 294 292 294 297 306 304 295 282 266 243 222 211
319 323 327 326 325 323 324 323 321 317 318 315 313 310 310 310 311 312 314 317 316 313 303 293 295 300 299 292 290 297 305 302 306 305 284 243 206 194
331 327 325 325 326 325 323 322 322 321 320 316 314 313 314 314 314 314 313 316 317 318 324 325 320 310 292 283 300 312 318 321 323 329 340 40 122 172
335 327 324 324 322 322 322 321 321 320 318 316 313 311 312 313 313 315 315 317 319 321 323 326 332 334 329 298 302 326 338 342 350 2 18 37 45 65
332 323 321 320 319 318 317 316 315 315 313 311 310 310 310 310 311 313 317 319 320 322 324 327 334 340 341 340 332 340 353 356 4 17 26 33 42 49
326 321 319 317 316 315 314 314 312 312 312 311 309 308 308 309 310 312 315 318 321 324 327 332 338 340 330 318 316 335 4 17 14 20 26 34 46 53
323 320 317 315 313 312 311 310 309 308 307 307 306 306 307 308 308 309 311 317 322 323 328 331 326 332 326 325 349 12 23 30 39 36 20 34 50 55
320 318 315 311 311 310 309 308 308 307 307 306 305 305 305 304 304 305 308 314 316 318 317 317 327 341 357 12 19 24 33 37 41 46 49 51 56 60
319 315 312 310 309 308 307 306 305 304 303 302 302 302 302 302 301 301 305 310 312 318 324 332 343 354 3 11 22 34 39 42 47 54 56 58 66 69
Height
1447 1442 1438 1433 1429 1424 1419 1414 1407 1392 1380 1378 1377 1374 1372 1369 1365 1361 1356 1351 1346 1340 1335 1330 1324 1320 1316 1312 1309 1307 1304 1302 1300 1299 1298 1297 1297 1297
1441 1436 1432 1427 1422 1417 1412 1408 1403 1395 1380 1370 1367 1365 1362 1359 1356 1352 1346 1341 1335 1329 1323 1318 1313 1308 1304 1300 1296 1293 1290 1288 1286 1285 1284 1283 1283 1283
1436 1431 1426 1420 1415 1410 1405 1400 1395 1390 1379 1365 1360 1356 1352 1348 1343 1340 1335 1329 1323 1318 1312 1306 1300 1295 1291 1287 1283 1279 1277 1274 1272 1271 1270 1269 1269 1269
1430 1425 1420 1414 1409 1404 1398 1392 1387 1383 1375 1363 1352 1348 1343 1339 1333 1328 1324 1319 1313 1306 1300 1294 1288 1283 1278 1273 1269 1266 1263 1260 1258 1257 1256 1255 1255 1255
1425 1420 1414 1409 1402 1397 1391 1386 1380 1375 1369 1360 1348 1341 1335 1330 1324 1317 1312 1306 1300 1294 1288 1282 1276 1270 1265 1260 1256 1252 1249 1246 1244 1242 1241 1240 1240 1241
1420 1415 1409 1404 1397 1391 1385 1380 1374 1367 1360 1352 1343 1334 1328 1322 1316 1308 1299 1293 1287 1282 1275 1270 1264 1258 1253 1247 1243 1238 1234 1231 1229 1227 1226 1226 1226 1226
1414 1409 1404 1398 1393 1387 1382 1374 1368 1360 1353 1345 1337 1328 1321 1314 1308 1300 1291 1282 1275 1271 1263 1257 1252 1244 1238 1233 1228 1223 1219 1216 1214 1212 1211 1211 1211 1212
1407 1402 1397 1391 1386 1380 1375 1368 1363 1355 1347 1339 1331 1323 1315 1308 1301 1293 1284 1275 1263 1261 1255 1245 1241 1232 1225 1220 1214 1210 1206 1202 1200 1198 1197 1196 1197 1198
1401 1396 1390 1384 1379 1371 1365 1360 1354 1349 1343 1336 1325 1317 1309 1302 1295 1286 1278 1269 1259 1251 1246 1234 1228 1220 1214 1207 1202 1197 1192 1188 1185 1183 1182 1181 1182 1183
1396 1391 1384 1377 1371 1365 1358 1351 1345 1339 1333 1327 1320 1311 1304 1296 1289 1281 1271 1261 1251 1244 1240 1228 1217 1210 1201 1194 1188 1183 1178 1174 1170 1168 1166 1166 1167 1169
1390 1385 1380 1372 1365 1360 1352 1344 1336 1329 1324 1318 1311 1304 1296 1288 1282 1273 1265 1256 1243 1234 1231 1223 1210 1200 1190 1181 1175 1171 1166 1162 1157 1153 1151 1151 1152 1154
1383 1378 1373 1367 1360 1353 1346 1338 1329 1321 1315 1307 1300 1293 1286 1280 1274 1268 1260 1252 1241 1229 1221 1216 1205 1197 1180 1169 1165 1160 1153 1147 1142 1138 1136 1135 1137 1141
1378 1371 1365 1360 1354 1347 1340 1332 1325 1318 1310 1301 1293 1285 1279 1273 1266 1260 1254 1247 1238 1226 1218 1212 1201 1193 1186 1169 1156 1150 1144 1136 1130 1125 1121 1121 1123 1127
1374 1367 1360 1354 1347 1340 1333 1327 1321 1313 1304 1296 1289 1281 1274 1266 1259 1253 1246 1239 1232 1223 1213 1207 1199 1190 1180 1169 1155 1142 1135 1128 1121 1115 1112 1110 1112 1116
1370 1363 1356 1348 1341 1333 1327 1322 1315 1307 1300 1293 1286 1278 1270 1262 1254 1246 1239 1231 1224 1217 1209 1202 1195 1186 1178 1168 1156 1143 1132 1121 1116 1110 1106 1105 1106 1110
1364 1356 1350 1342 1336 1329 1323 1316 1310 1304 1298 1291 1283 1275 1267 1259 1251 1243 1235 1227 1217 1209 1205 1198 1190 1182 1173 1164 1155 1143 1133 1124 1115 1109 1105 1104 1105 1107
1359 1351 1343 1337 1330 1324 1318 1312 1306 1300 1293 1287 1279 1271 1264 1256 1248 1241 1234 1226 1219 1209 1199 1193 1186 1179 1171 1165 1154 1145 1135 1126 1118 1111 1107 1105 1106 1108
1354 1347 1340 1334 1328 1321 1315 1308 1302 1296 1290 1283 1276 1269 1262 1254 1246 1239 1233 1226 1219 1211 1203 1194 1186 1178 1172 1165 1160 1150 1141 1132 1124 1118 1113 1110 1109 1111
1350 1344 1338 1332 1325 1319 1313 1306 1299 1293 1286 1280 1273 1266 1259 1252 1245 1238 1232 1226 1219 1212 1205 1198 1191 1184 1177 1170 1164 1158 1150 1141 1134 1127 1122 1119 1117 1117
1347 1341 1335 1329 1323 1316 1310 1303 1296 1289 1283 1276 1270 1264 1257 1251 1244 1238 1232 1226 1220 1213 1207 1201 1195 1189 1184 1179 1172 1166 1160 1152 1144 1138 1134 1130 1127 1126
1343 1338 1332 1326 1320 1313 1307 1300 1293 1286 1279 1273 1267 1261 1255 1249 1243 1237 1232 1226 1221 1215 1209 1204 1199 1195 1190 1184 1179 1174 1169 1163 1156 1150 1145 1141 1139 1137
1340 1334 1328 1323 1316 1310 1303 1296 1289 1283 1276 1270 1264 1258 1253 1247 1242 1236 1231 1227 1222 1217 1212 1208 1203 1199 1194 1190 1186 1182 1178 1173 1168 1163 1158 1156 1153 1153
1337 1331 1325 1319 1313 1306 1300 1293 1286 1280 1273 1267 1261 1256 1250 1245 1240 1236 1231 1227 1223 1218 1214 1211 1207 1203 1200 1196 1193 1190 1187 1184 1180 1177 1175 1173 1171 1169